www.pogodaiklimat.ru
ПОГОДА во Флоренсе
Время
и дата
15:35 27.05
16:35 27.05
17:35 27.05
17:55 27.05
18:35 27.05
18:55 27.05
19:15 27.05
19:35 27.05
19:55 27.05
20:15 27.05
20:35 27.05
20:55 27.05
21:15 27.05
21:35 27.05
21:55 27.05
22:15 27.05
22:35 27.05
22:55 27.05
23:15 27.05
23:35 27.05
23:55 27.05
00:15 28.05
00:35 28.05
00:55 28.05
01:15 28.05
01:35 28.05
01:55 28.05
02:15 28.05
02:35 28.05
02:55 28.05
03:15 28.05
03:35 28.05
04:15 28.05
04:35 28.05
04:55 28.05
05:15 28.05
05:35 28.05
05:55 28.05
06:15 28.05
06:35 28.05
06:55 28.05
07:15 28.05
07:35 28.05
07:55 28.05
08:15 28.05
08:35 28.05
08:55 28.05
09:15 28.05
Ветер
(напр.,м/с)
Видим. Явления Облачность Т
(С)
Тd
(С)
f
(%)
Тe
(С)
Тes
(С)
Комфортность P
(гПа)
Po
(гПа)
Тmin
(С)
Tmax
(С)
R
(мм)
R24
(мм)
S
(см)
СЗ 6
{9}
16 км ясно +15.0 +13.0 88 +13 +18 1018.3
СЗ 6
{9}
16 км 2/2 360 м +15.0 +13.0 88 +13 +16 1017.9
СЗ 6
{9}
16 км ясно +14.0 +13.0 94 +12 +14 1017.9
СЗ 5
{9}
16 км ясно +14.0 +13.0 94 +12 +15 1017.9
СЗ 5
{8}
16 км ясно +14.0 +13.0 94 +12 +13 1017.9
СЗ 5 16 км ясно +13.0 +13.0 100 +11 +12 1018.3
СЗ 5 16 км ясно +13.0 +13.0 100 +11 +11 1018.3
нст 3
{6}
16 км 2/2 390 м +13.0 +13.0 100 +11 +12 1018.3
СЗ 4 16 км 2/2 390 м +13.0 +13.0 100 +11 +11 1018.3
СЗ 3 16 км ясно +12.0 +12.0 100 +10 +10 1018.3
СЗ 3 16 км ясно +12.0 +12.0 100 +10 +10 1018.3
С 3 16 км 2/2 90 м +12.0 +12.0 100 +10 +10 1018.6
С 2 16 км 8/8 90 м +12.0 +12.0 100 +11 +11 1018.6
нст 2 16 км 8/8 60 м +12.0 +12.0 100 +11 +11 1018.6
нст 2 16 км 8/8 90 м +12.0 +12.0 100 +11 +11 1018.6
СЗ 2 16 км 10/10 60 м +12.0 +12.0 100 +11 +11 1018.6
СЗ 3 16 км 8/8 60 м +12.0 +12.0 100 +10 +10 1018.6
штиль 0 16 км 8/8 90 м +12.0 +12.0 100 +11 +11 1018.6
штиль 0 16 км 8/8 60 м +11.0 +11.0 100 +10 +10 1018.6
штиль 0 13 км 8/8 60 м +11.0 +11.0 100 +10 +10 1018.6
штиль 0 11 км 5/5 60 м +10.0 +10.0 100 +9 +9 1018.3
штиль 0 16 км 5/5 390 м +10.0 +10.0 100 +9 +9 1018.3
штиль 0 14 км 10/10 420 м +10.0 +10.0 100 +9 +9 1018.3
штиль 0 14 км 8/8 420 м +10.0 +10.0 100 +9 +9 1018.3
штиль 0 16 км 10/10 330 м +10.0 +10.0 100 +9 +9 1018.3
штиль 0 16 км 10/10 330 м +11.0 +11.0 100 +10 +10 1018.3
штиль 0 16 км 10/10 60 м +11.0 +11.0 100 +10 +10 1018.3
штиль 0 16 км 5/5 60 м +11.0 +11.0 100 +10 +10 1018.3
штиль 0 16 км 5/5 390 м +10.0 +10.0 100 +9 +9 1018.3
штиль 0 16 км 10/10 390 м +10.0 +10.0 100 +9 +9 1018.3
штиль 0 16 км 10/10 390 м +10.0 +10.0 100 +9 +9 1018.3
штиль 0 16 км 8/8 390 м +10.0 +10.0 100 +9 +9 1018.6
штиль 0 16 км 2/2 510 м +10.0 +10.0 100 +9 +9 1018.6
штиль 0 16 км ясно +10.0 +10.0 100 +9 +9 1018.6
штиль 0 16 км 8/8 510 м +10.0 +10.0 100 +9 +9 1018.9
штиль 0 16 км 10/10 540 м +10.0 +10.0 100 +9 +9 1018.9
штиль 0 16 км 10/10 450 м +11.0 +11.0 100 +10 +10 1018.9
штиль 0 16 км 10/10 480 м +11.0 +11.0 100 +10 +10 1019.3
штиль 0 16 км 8/8 450 м +11.0 +11.0 100 +10 +10 1019.3
штиль 0 16 км 5/5 690 m
[Ac]
+12.0 +12.0 100 +11 +12 1019.3
штиль 0 16 км 5/5 990 m
[Ac]
+12.0 +12.0 100 +11 +12 1019.6
Ю 2 16 км 8/8 270 м +13.0 +13.0 100 +12 +13 1019.6
Ю 2 16 км 10/10 330 м +13.0 +13.0 100 +12 +12 1019.6
ЮЗ 2 8 км дымка 10/10 360 м +13.0 +13.0 100 +12 +12 1020.0
ЮЗ 3 16 км 10/10 570 м +13.0 +13.0 100 +11 +11 1020.0
нст 3 16 км 10/10 900 м +14.0 +13.0 94 +13 +13 1020.0
ЮЗ 3 16 км 8/8 870 м +14.0 +12.0 88 +13 +14 1020.0
ЮЗ 3 16 км 10/10 660 м +14.0 +13.0 94 +13 +13 1020.0
Местоположение метеостанции Florence Municipal Airport: широта 43.9800 долгота -124.1100 высота над уровнем моря 16 м.
В архиве по умолчанию представлена погода во Флоренсе за последние 1-2 суток. Обновление информации о фактической погоде в базе происходит ежечасно! Архивные данные за месяц целиком и за предыдущие месяцы Вы можете получить, выбрав интересующий диапазон дат из раскрывающегося списка и нажав кнопку "Ввод!".
Внимание! Архив погоды МЕТАР в базе сайта по станциям, не включенным в климатический монитор, хранится не более 60 дней. Нет смысла пытаться выбрать более раннюю дату.
*Определитесь, кто Вы:
Внимание! Время в таблицах - местное (без учета летнего времени). Для получения всемирного времени необходимо вычесть поправку, которая равна -8 ч.
Смотрите также архив погоды в соседних городах и на ближайших метеорологических станциях:
Партнеры нашего сайта:      
Пояснения к столбцам:
  • Ветер - указаны скорость ветра в м/с - средняя за 10 мин, порывы в срок и между сроками (в фигурных скобках) и направление, откуда дует ветер: С - северный,
  • СВ - северо-восточный, В - восточный, ЮВ - юго-восточный, Ю - южный, ЮЗ - юго-западный, З - западный, СЗ - северо-западный.
  • Видимость - горизонтальная дальность видимости в метрах или километрах. При видимости от 1 до 10 км при отсутствии осадков обычно наблюдается дымка, при ухудшении видимости до 1 км и менее - туман. В сухую погоду видимость может ухудшаться дымом, пылью или мглою.
  • Явления - указаны атмосферные явления, наблюдавшиеся в срок или в последний час перед сроком; фигурными скобками обозначены явления, наблюдавшиеся между сроками (за 1-3 часа до срока); квадратными скобками обозначены град или гололедные отложения с указанием их диаметра в мм.
  • Облачность - указаны через наклонную черту общая и нижняя облачность в баллах и высота нижней границы облаков в метрах; квадратными скобками обозначены формы облаков: Ci - перистые, Cs - перисто-слоистые, Cc - перисто-кучевые, Ac - высококучевые, As - высокослоистые, Sc - слоисто-кучевые, Ns - слоисто-дождевые, Cu - кучевые, Cb - кучево-дождевые. Подробнее классификацию облаков см. в Атласе облаков (PDF).
  • T - Температура воздуха - температура, измеренная на высоте 2 м над землей.
  • Td - Температура точки росы - температура, при понижении до которой содержащийся в воздухе водяной пар достигнет насыщения.
  • f - Относительная влажность воздуха - влажноcть воздуха, измеренная на высоте 2 м над землей.
  • Te - Эффективная температура - температура, которую ощущает одетый по сезону человек в тени. Характеристика душности погоды. При расчете учитывается влияние влажности воздуха и скорости ветра на теплоощущения человека.
  • Tes - Эффективная температура на солнце - температура, которую ощущает человек, с поправкой на солнечный нагрев. Характеристика знойности погоды. Зависит от высоты солнца над горизонтом, облачности и скорости ветра. Ночью, в пасмурную погоду, а также при ветре 12 м/с и более поправка равна нулю.
  • P - Атмосферное давление - приведенное к уровню моря атмосферное давление.
  • Po - Атмосферное давление - измеренное на уровне метеостанции атмосферное давление.
  • Tmin - Минимальная температура - минимум температуры воздуха на высоте 2 м над землей.
  • Tmax - Максимальная температура - максимум температуры воздуха на высоте 2 м над землей.
  • R - Количество осадков - Количество выпавших осадков за период времени, мм. При наведении курсора мыши на число - период времени, за который выпало указанное количество осадков.
  • R24 - Количество осадков - Количество выпавших осадков за 24 часа, мм.
  • S - Снежный покров - Высота снежного покрова, см. При наведении курсора мыши на число - состояние снежного покрова и степень покрытия местности в баллах.